When you browse on this site, cookies collect data to enhance your experience and personalize the content and advertising you see.
Visit our Privacy Policy to learn more. By continuing to use the site, you agree to this use of cookies and data.
  • In Latvia
  • List of Countries
  • For 7 days
  • Water Temperature
  • Satellite Maps
  • Weather Map
  • Weather Widgets
  • user-avatar
    Login

    Hourly Weather Solden

    Today, 23 July, Tuesday

    Time Temperature Precipitation Wind Pressure Humidity
    00:00 +10°C° 0 mm 1 mps 590 mmHg 85%
    01:00 +10°C° 0 mm 1 mps 590 mmHg 85%
    02:00 +10°C° 0 mm 1 mps 590 mmHg 85%
    03:00 +9°C° 0 mm 1 mps 589 mmHg 84%
    04:00 +9°C° 0 mm 1 mps 589 mmHg 84%
    05:00 +10°C° 0 mm 1 mps 590 mmHg 79%
    06:00 +11°C° 0 mm 0 mps 591 mmHg 74%
    07:00 +13°C° 0 mm 0 mps 591 mmHg 69%
    08:00 +15°C° 0 mm 0 mps 592 mmHg 61%
    09:00 +19°C° 0 mm 1 mps 593 mmHg 54%
    10:00 +21°C° 0 mm 1 mps 594 mmHg 47%
    11:00 +21°C° 0 mm 1 mps 594 mmHg 45%
    12:00 +22°C° 0 mm 1 mps 594 mmHg 43%
    13:00 +23°C° 0 mm 1 mps 594 mmHg 41%
    14:00 +23°C° 0.1 mm 2 mps 594 mmHg 43%
    15:00 +23°C° 0.1 mm 2 mps 594 mmHg 45%
    16:00 +23°C° 0.1 mm 2 mps 593 mmHg 47%
    17:00 +21°C° 0.5 mm 1 mps 592 mmHg 59%
    18:00 +19°C° 0.5 mm 1 mps 592 mmHg 71%
    19:00 +16°C° 0.5 mm 1 mps 591 mmHg 83%
    20:00 +15°C° 0.1 mm 1 mps 590 mmHg 85%
    21:00 +12°C° 0.1 mm 0 mps 590 mmHg 88%
    22:00 +11°C° 0.1 mm 0 mps 589 mmHg 91%
    23:00 +10°C° 0 mm 0 mps 589 mmHg 91%

    Tomorrow, 24 July, Wednesday

    Time Temperature Precipitation Wind Pressure Humidity
    00:00 +10°C° 0 mm 0 mps 589 mmHg 91%
    01:00 +10°C° 0 mm 0 mps 588 mmHg 91%
    02:00 +10°C° 0 mm 0 mps 588 mmHg 90%
    03:00 +11°C° 0 mm 1 mps 588 mmHg 90%
    04:00 +10°C° 0 mm 1 mps 588 mmHg 90%
    05:00 +11°C° 0 mm 0 mps 588 mmHg 86%
    06:00 +12°C° 0 mm 0 mps 589 mmHg 82%
    07:00 +14°C° 0 mm 0 mps 590 mmHg 78%
    08:00 +16°C° 0.1 mm 0 mps 591 mmHg 71%
    09:00 +19°C° 0.1 mm 1 mps 591 mmHg 64%
    10:00 +21°C° 0.1 mm 1 mps 592 mmHg 57%
    11:00 +22°C° 0.7 mm 1 mps 592 mmHg 57%
    12:00 +22°C° 0.7 mm 1 mps 592 mmHg 56%
    13:00 +22°C° 0.7 mm 1 mps 592 mmHg 56%
    14:00 +22°C° 0.9 mm 1 mps 592 mmHg 58%
    15:00 +21°C° 0.9 mm 1 mps 592 mmHg 61%
    16:00 +21°C° 0.9 mm 1 mps 591 mmHg 64%
    17:00 +20°C° 0.5 mm 1 mps 591 mmHg 70%
    18:00 +18°C° 0.5 mm 1 mps 590 mmHg 77%
    19:00 +15°C° 0.5 mm 0 mps 590 mmHg 83%
    20:00 +15°C° 0.6 mm 1 mps 589 mmHg 84%
    21:00 +14°C° 0.6 mm 1 mps 589 mmHg 86%
    22:00 +13°C° 0.6 mm 1 mps 589 mmHg 87%
    23:00 +12°C° 0.7 mm 1 mps 589 mmHg 87%

    Day after tomorrow, 25 July, Thursday

    Time Temperature Precipitation Wind Pressure Humidity
    00:00 +12°C° 0.7 mm 1 mps 588 mmHg 87%
    01:00 +12°C° 0.7 mm 1 mps 588 mmHg 87%
    02:00 +12°C° 0.1 mm 1 mps 588 mmHg 87%
    03:00 +11°C° 0.1 mm 1 mps 588 mmHg 87%
    04:00 +11°C° 0.1 mm 1 mps 588 mmHg 87%
    05:00 +11°C° 0 mm 0 mps 588 mmHg 84%
    06:00 +13°C° 0 mm 0 mps 589 mmHg 82%
    07:00 +14°C° 0 mm 0 mps 590 mmHg 79%
    08:00 +16°C° 0.1 mm 0 mps 590 mmHg 73%
    09:00 +19°C° 0.1 mm 1 mps 591 mmHg 66%
    10:00 +21°C° 0.1 mm 1 mps 592 mmHg 59%
    11:00 +21°C° 0.9 mm 1 mps 592 mmHg 60%
    12:00 +22°C° 0.9 mm 1 mps 592 mmHg 61%
    13:00 +22°C° 0.9 mm 1 mps 592 mmHg 62%
    14:00 +21°C° 1.3 mm 1 mps 591 mmHg 65%
    15:00 +21°C° 1.3 mm 1 mps 591 mmHg 68%
    16:00 +20°C° 1.3 mm 1 mps 590 mmHg 70%
    17:00 +19°C° 1.8 mm 1 mps 590 mmHg 76%
    18:00 +18°C° 1.8 mm 1 mps 589 mmHg 82%
    19:00 +15°C° 1.8 mm 1 mps 589 mmHg 88%
    20:00 +14°C° 1 mm 1 mps 588 mmHg 88%
    21:00 +13°C° 1 mm 1 mps 588 mmHg 88%
    22:00 +12°C° 1 mm 2 mps 588 mmHg 88%
    23:00 +12°C° 0.1 mm 1 mps 587 mmHg 86%

    26 July, Friday

    Time Temperature Precipitation Wind Pressure Humidity
    00:00 +12°C° 0.1 mm 1 mps 587 mmHg 84%
    01:00 +12°C° 0.1 mm 1 mps 587 mmHg 81%
    02:00 +11°C° 0 mm 1 mps 586 mmHg 80%
    03:00 +11°C° 0 mm 1 mps 586 mmHg 80%
    04:00 +10°C° 0 mm 1 mps 585 mmHg 79%
    05:00 +12°C° 0 mm 1 mps 586 mmHg 76%
    06:00 +13°C° 0 mm 1 mps 587 mmHg 72%
    07:00 +13°C° 0 mm 0 mps 587 mmHg 69%
    08:00 +16°C° 0 mm 1 mps 588 mmHg 63%
    09:00 +19°C° 0 mm 1 mps 589 mmHg 56%
    10:00 +21°C° 0 mm 1 mps 590 mmHg 49%
    11:00 +22°C° 0.2 mm 1 mps 590 mmHg 47%
    12:00 +22°C° 0.2 mm 1 mps 590 mmHg 45%
    13:00 +23°C° 0.2 mm 1 mps 590 mmHg 43%
    14:00 +23°C° 0.5 mm 1 mps 589 mmHg 45%
    15:00 +22°C° 0.5 mm 1 mps 589 mmHg 47%
    16:00 +22°C° 0.5 mm 1 mps 588 mmHg 50%
    17:00 +20°C° 0.6 mm 1 mps 588 mmHg 59%
    18:00 +18°C° 0.6 mm 1 mps 587 mmHg 69%
    19:00 +16°C° 0.6 mm 1 mps 586 mmHg 78%
    20:00 +14°C° 1.3 mm 1 mps 585 mmHg 82%
    21:00 +12°C° 1.3 mm 1 mps 585 mmHg 85%
    22:00 +11°C° 1.3 mm 1 mps 584 mmHg 89%
    23:00 +10°C° 0.2 mm 1 mps 584 mmHg 88%

    27 July, Saturday

    Time Temperature Precipitation Wind Pressure Humidity
    00:00 +10°C° 0.2 mm 1 mps 584 mmHg 87%
    01:00 +9°C° 0.2 mm 1 mps 583 mmHg 87%
    02:00 +9°C° 0 mm 1 mps 583 mmHg 87%
    03:00 +9°C° 0 mm 1 mps 583 mmHg 86%
    04:00 +9°C° 0 mm 1 mps 582 mmHg 86%
    05:00 +10°C° 0 mm 1 mps 583 mmHg 83%
    06:00 +12°C° 0 mm 1 mps 584 mmHg 80%
    07:00 +12°C° 0 mm 0 mps 585 mmHg 77%
    08:00 +15°C° 0 mm 1 mps 586 mmHg 68%
    09:00 +18°C° 0 mm 1 mps 587 mmHg 59%
    10:00 +20°C° 0 mm 1 mps 588 mmHg 50%
    11:00 +20°C° 0.1 mm 1 mps 588 mmHg 48%
    12:00 +21°C° 0.1 mm 1 mps 588 mmHg 45%
    13:00 +22°C° 0.1 mm 1 mps 588 mmHg 43%
    14:00 +21°C° 0.4 mm 2 mps 588 mmHg 46%
    15:00 +20°C° 0.4 mm 2 mps 588 mmHg 49%
    16:00 +20°C° 0.4 mm 2 mps 588 mmHg 52%
    17:00 +19°C° 0.8 mm 1 mps 587 mmHg 63%
    18:00 +16°C° 0.8 mm 1 mps 586 mmHg 74%
    19:00 +14°C° 0.8 mm 0 mps 586 mmHg 85%
    20:00 +12°C° 0.3 mm 0 mps 585 mmHg 85%
    21:00 +12°C° 0.3 mm 1 mps 585 mmHg 86%
    22:00 +11°C° 0.3 mm 1 mps 584 mmHg 87%
    23:00 +10°C° 0.2 mm 1 mps 584 mmHg 87%

    28 July, Sunday

    Time Temperature Precipitation Wind Pressure Humidity
    00:00 +10°C° 0.2 mm 1 mps 584 mmHg 87%
    01:00 +9°C° 0.2 mm 1 mps 584 mmHg 87%
    02:00 +9°C° 0.1 mm 1 mps 584 mmHg 87%
    03:00 +9°C° 0.1 mm 1 mps 583 mmHg 87%
    04:00 +9°C° 0.1 mm 1 mps 583 mmHg 87%
    05:00 +9°C° 0 mm 0 mps 584 mmHg 85%
    06:00 +10°C° 0 mm 0 mps 585 mmHg 82%
    07:00 +12°C° 0 mm 0 mps 586 mmHg 80%
    08:00 +14°C° 0 mm 0 mps 587 mmHg 72%
    09:00 +18°C° 0 mm 1 mps 587 mmHg 63%
    10:00 +20°C° 0 mm 1 mps 588 mmHg 55%
    11:00 +20°C° 0.2 mm 1 mps 589 mmHg 53%
    12:00 +21°C° 0.2 mm 1 mps 589 mmHg 50%
    13:00 +22°C° 0.2 mm 1 mps 589 mmHg 48%
    14:00 +22°C° 0.4 mm 1 mps 589 mmHg 50%
    15:00 +21°C° 0.4 mm 1 mps 589 mmHg 53%
    16:00 +21°C° 0.4 mm 1 mps 589 mmHg 55%
    17:00 +19°C° 0.8 mm 1 mps 588 mmHg 66%
    18:00 +18°C° 0.8 mm 1 mps 588 mmHg 76%
    19:00 +15°C° 0.8 mm 1 mps 587 mmHg 87%
    20:00 +14°C° 0.3 mm 1 mps 587 mmHg 88%
    21:00 +12°C° 0.3 mm 1 mps 587 mmHg 89%
    22:00 +11°C° 0.3 mm 1 mps 586 mmHg 90%
    23:00 +10°C° 0.1 mm 1 mps 586 mmHg 90%
    Show more